TBA9816 ZBAA-ZULS

Flight info

Callsign TBA9816
Flight time N/A
Altitude 34100
Route BOTPU6J BOTPU W47 IDSOT W48 MAKIP DCT MULOB W220 TUTGO/K0872S0980 W220 NIRUV B215 VENIV W198 PANRA DCT XNN DCT IGELA DCT TAPUN W500 LXA
Aircraft A319/M-SDE3FGHIRWY/LB1

Departure

Time N/A
Airport Beijing Capital International Airport (ZBAA)

Arrival

Time 2026-05-06 14:39
Airport Lhasa Gonggar International Airport (ZULS)
Time Latitude Longitude Altitude Speed Heading
2026-05-06 11:06 40.06768 113.88188 34071 ft 378 kts 271°
2026-05-06 11:06 40.07016 113.84767 34080 ft 378 kts 271°
2026-05-06 11:07 40.07503 113.77928 34088 ft 378 kts 270°
2026-05-06 11:07 40.07983 113.71085 34130 ft 378 kts 270°
2026-05-06 11:08 40.08464 113.64294 34122 ft 378 kts 270°
2026-05-06 11:08 40.08945 113.57464 34128 ft 378 kts 270°
2026-05-06 11:09 40.09419 113.50629 34121 ft 378 kts 270°
2026-05-06 11:09 40.09887 113.43800 34130 ft 378 kts 270°
2026-05-06 11:10 40.10352 113.36957 34142 ft 378 kts 271°
2026-05-06 11:10 40.10820 113.30126 34143 ft 377 kts 271°
2026-05-06 11:11 40.11280 113.23298 34154 ft 377 kts 271°
2026-05-06 11:11 40.11730 113.16476 34151 ft 377 kts 271°
2026-05-06 11:12 40.12180 113.09655 34173 ft 377 kts 271°
2026-05-06 11:12 40.12621 113.02842 34169 ft 376 kts 271°
2026-05-06 11:13 40.13057 112.96032 34174 ft 376 kts 271°
2026-05-06 11:13 40.13492 112.89224 34175 ft 376 kts 271°
2026-05-06 11:14 40.13928 112.82421 34187 ft 376 kts 271°
2026-05-06 11:14 40.14355 112.75614 34187 ft 376 kts 271°
2026-05-06 11:15 40.14776 112.68807 34195 ft 376 kts 271°
2026-05-06 11:15 40.15196 112.62000 34192 ft 375 kts 271°
2026-05-06 11:16 40.15609 112.55196 34202 ft 375 kts 271°
2026-05-06 11:16 40.15998 112.48435 34161 ft 374 kts 268°
2026-05-06 11:17 40.15175 112.41801 34180 ft 371 kts 251°
2026-05-06 11:17 40.13399 112.35459 34180 ft 372 kts 251°
2026-05-06 11:18 40.11634 112.29102 34194 ft 373 kts 251°
2026-05-06 11:18 40.09856 112.22728 34199 ft 373 kts 251°
2026-05-06 11:19 40.08073 112.16358 34210 ft 373 kts 251°
2026-05-06 11:19 40.06292 112.09998 34228 ft 373 kts 251°
2026-05-06 11:20 40.04511 112.03640 34224 ft 372 kts 251°
2026-05-06 11:20 40.02725 111.97300 34175 ft 373 kts 251°
2026-05-06 11:21 40.00927 111.90945 34179 ft 374 kts 251°
2026-05-06 11:21 39.98815 111.84753 34183 ft 378 kts 240°
2026-05-06 11:22 39.95146 111.79736 34196 ft 388 kts 226°
2026-05-06 11:22 39.90991 111.75239 34195 ft 389 kts 227°
2026-05-06 11:23 39.86858 111.70753 34163 ft 390 kts 227°
2026-05-06 11:23 39.82681 111.66221 34166 ft 391 kts 226°
2026-05-06 11:24 39.78490 111.61708 34168 ft 391 kts 226°
2026-05-06 11:24 39.74294 111.57194 34172 ft 392 kts 226°
2026-05-06 11:25 39.70096 111.52673 34158 ft 393 kts 226°
2026-05-06 11:25 39.65873 111.48133 34168 ft 394 kts 226°
2026-05-06 11:26 39.61645 111.43600 34173 ft 394 kts 226°
2026-05-06 11:26 39.57419 111.39076 34166 ft 394 kts 226°
2026-05-06 11:27 39.53218 111.34588 34137 ft 394 kts 226°
2026-05-06 11:27 39.48989 111.30074 34143 ft 394 kts 226°
2026-05-06 11:28 39.44756 111.25560 34144 ft 394 kts 226°
2026-05-06 11:28 39.40518 111.21045 34148 ft 395 kts 226°
2026-05-06 11:29 39.36271 111.16534 34124 ft 395 kts 226°
2026-05-06 11:29 39.32002 111.12015 34170 ft 397 kts 226°
2026-05-06 11:30 39.27722 111.07474 34170 ft 398 kts 226°
2026-05-06 11:30 39.23441 111.02950 34169 ft 398 kts 226°
2026-05-06 11:31 39.19332 110.98304 34170 ft 390 kts 235°
2026-05-06 11:31 39.16753 110.92344 34167 ft 379 kts 255°
2026-05-06 11:32 39.16201 110.85649 34164 ft 378 kts 272°
2026-05-06 11:32 39.16532 110.78881 34175 ft 378 kts 272°
2026-05-06 11:33 39.16847 110.72109 34183 ft 379 kts 272°
2026-05-06 11:33 39.17169 110.65344 34181 ft 378 kts 272°
2026-05-06 11:34 39.17481 110.58583 34180 ft 378 kts 272°
2026-05-06 11:34 39.17792 110.51820 34178 ft 378 kts 272°
2026-05-06 11:35 39.18098 110.45056 34180 ft 378 kts 272°
2026-05-06 11:35 39.18398 110.38301 34184 ft 377 kts 272°
2026-05-06 11:36 39.18698 110.31545 34190 ft 377 kts 272°
2026-05-06 11:36 39.18990 110.24839 34191 ft 377 kts 272°
2026-05-06 11:37 39.19280 110.18085 34201 ft 377 kts 272°
2026-05-06 11:37 39.19579 110.11328 34221 ft 377 kts 272°
2026-05-06 11:38 39.19910 110.04569 34229 ft 377 kts 272°
2026-05-06 11:38 39.20240 109.97836 34226 ft 376 kts 272°
2026-05-06 11:39 39.20565 109.91101 34224 ft 376 kts 272°
2026-05-06 11:39 39.20879 109.84406 34222 ft 376 kts 272°
2026-05-06 11:40 39.21188 109.77684 34243 ft 375 kts 272°
2026-05-06 11:40 39.21492 109.70973 34222 ft 374 kts 272°
2026-05-06 11:41 39.21793 109.64272 34202 ft 374 kts 272°
2026-05-06 11:41 39.22085 109.57568 34207 ft 374 kts 272°
2026-05-06 11:42 39.22375 109.50859 34216 ft 375 kts 272°
2026-05-06 11:42 39.22653 109.44149 34223 ft 374 kts 272°
2026-05-06 11:43 39.22915 109.37445 34231 ft 374 kts 272°
2026-05-06 11:43 39.23164 109.30752 34231 ft 374 kts 272°
2026-05-06 11:44 39.23527 109.20700 34236 ft 373 kts 272°
2026-05-06 11:44 39.23767 109.14062 34233 ft 373 kts 272°
2026-05-06 11:45 39.24010 109.07335 34250 ft 373 kts 272°
2026-05-06 11:45 39.24248 109.00694 34245 ft 372 kts 272°
2026-05-06 11:46 39.24489 108.94029 34250 ft 372 kts 272°
2026-05-06 11:46 39.24716 108.87361 34247 ft 372 kts 272°
2026-05-06 11:47 39.24932 108.80701 34246 ft 372 kts 272°
2026-05-06 11:47 39.25149 108.74045 34253 ft 371 kts 272°
2026-05-06 11:48 39.25367 108.67391 34255 ft 371 kts 272°
2026-05-06 11:48 39.25548 108.61854 34253 ft 371 kts 272°
2026-05-06 11:49 39.25763 108.55209 34257 ft 371 kts 272°
2026-05-06 11:49 39.25967 108.48563 34255 ft 370 kts 272°
2026-05-06 11:50 39.26168 108.41916 34281 ft 370 kts 272°
2026-05-06 11:50 39.26394 108.34207 34278 ft 370 kts 272°
2026-05-06 11:51 39.26556 108.28654 34276 ft 369 kts 272°
2026-05-06 11:51 39.26750 108.22083 34273 ft 368 kts 272°
2026-05-06 11:52 39.26942 108.15476 34276 ft 368 kts 272°
2026-05-06 11:52 39.27127 108.08871 34274 ft 368 kts 272°
2026-05-06 11:53 39.27309 108.02268 34238 ft 369 kts 272°
2026-05-06 11:53 39.27491 107.95639 34250 ft 370 kts 272°
2026-05-06 11:54 39.27665 107.88986 34256 ft 370 kts 272°
2026-05-06 11:54 39.27828 107.82351 34260 ft 370 kts 271°
2026-05-06 11:55 39.27987 107.75711 34265 ft 370 kts 271°
2026-05-06 11:55 39.28075 107.69083 34267 ft 369 kts 267°
2026-05-06 11:56 39.26863 107.62625 34350 ft 376 kts 252°
2026-05-06 11:56 39.25729 107.59561 34648 ft 380 kts 246°
2026-05-06 11:56 39.24309 107.56676 34942 ft 383 kts 242°
2026-05-06 11:57 39.22803 107.53896 35241 ft 382 kts 242°
2026-05-06 11:57 39.21281 107.51087 35519 ft 382 kts 242°
2026-05-06 11:57 39.19758 107.48280 35803 ft 381 kts 242°
2026-05-06 11:57 39.18232 107.45480 36076 ft 380 kts 242°
2026-05-06 11:58 39.16712 107.42689 36226 ft 383 kts 242°
2026-05-06 11:58 39.15185 107.39884 36207 ft 381 kts 242°
2026-05-06 11:58 39.12147 107.34302 36254 ft 380 kts 242°
2026-05-06 11:59 39.09105 107.28723 36249 ft 380 kts 242°
2026-05-06 11:59 39.06050 107.23161 36244 ft 380 kts 242°
2026-05-06 12:00 39.02986 107.17611 36244 ft 380 kts 242°
2026-05-06 12:00 38.99924 107.12056 36239 ft 381 kts 242°
2026-05-06 12:01 38.96861 107.06510 36202 ft 380 kts 241°
2026-05-06 12:01 38.93788 107.00968 36220 ft 380 kts 241°
2026-05-06 12:02 38.90722 106.95434 36227 ft 380 kts 241°
2026-05-06 12:02 38.87661 106.89896 36228 ft 380 kts 241°
2026-05-06 12:03 38.84610 106.84393 36234 ft 380 kts 241°
2026-05-06 12:03 38.81538 106.78871 36236 ft 380 kts 241°
2026-05-06 12:04 38.78457 106.73347 36196 ft 380 kts 241°
2026-05-06 12:04 38.75367 106.67815 36196 ft 381 kts 240°
2026-05-06 12:05 38.72273 106.62294 36205 ft 382 kts 240°
2026-05-06 12:05 38.69194 106.56803 36215 ft 382 kts 240°
2026-05-06 12:06 38.66092 106.51266 36219 ft 382 kts 240°
2026-05-06 12:06 38.62989 106.45743 36207 ft 382 kts 240°
2026-05-06 12:07 38.59901 106.40261 36214 ft 383 kts 240°
2026-05-06 12:07 38.56785 106.34732 36205 ft 383 kts 240°
2026-05-06 12:08 38.53668 106.29209 36218 ft 383 kts 240°
2026-05-06 12:08 38.50544 106.23685 36213 ft 383 kts 240°
2026-05-06 12:09 38.47436 106.18213 36227 ft 383 kts 240°
2026-05-06 12:09 38.44289 106.12678 36178 ft 383 kts 240°
2026-05-06 12:10 38.41119 106.07256 36192 ft 384 kts 239°
2026-05-06 12:10 38.37871 106.01846 36202 ft 385 kts 239°
2026-05-06 12:11 38.34612 105.96433 36208 ft 385 kts 239°
2026-05-06 12:11 38.31358 105.91005 36219 ft 385 kts 239°
2026-05-06 12:12 38.28106 105.85575 36224 ft 385 kts 239°
2026-05-06 12:12 38.24878 105.80188 36192 ft 385 kts 239°
2026-05-06 12:13 38.21619 105.74769 36212 ft 385 kts 239°
2026-05-06 12:13 38.18352 105.69347 36226 ft 385 kts 239°
2026-05-06 12:14 38.15102 105.63965 36272 ft 385 kts 239°
2026-05-06 12:14 38.11844 105.58573 36264 ft 384 kts 239°
2026-05-06 12:15 38.08585 105.53190 36262 ft 384 kts 239°
2026-05-06 12:15 38.05334 105.47820 36232 ft 383 kts 239°
2026-05-06 12:16 38.02102 105.42493 36243 ft 383 kts 239°
2026-05-06 12:16 37.98841 105.37142 36246 ft 383 kts 239°
2026-05-06 12:17 37.95583 105.31798 36255 ft 383 kts 239°
2026-05-06 12:17 37.92327 105.26451 36270 ft 383 kts 239°
2026-05-06 12:18 37.89074 105.21113 36269 ft 383 kts 239°
2026-05-06 12:18 37.85816 105.15781 36271 ft 383 kts 239°
2026-05-06 12:19 37.82548 105.10459 36271 ft 383 kts 239°
2026-05-06 12:19 37.79300 105.05163 36276 ft 383 kts 239°
2026-05-06 12:20 37.76034 104.99848 36273 ft 383 kts 239°
2026-05-06 12:20 37.72758 104.94535 36270 ft 382 kts 239°
2026-05-06 12:21 37.69479 104.89225 36239 ft 383 kts 239°
2026-05-06 12:21 37.66226 104.83956 36250 ft 383 kts 239°
2026-05-06 12:22 37.62943 104.78651 36265 ft 383 kts 239°
2026-05-06 12:22 37.59656 104.73349 36270 ft 383 kts 239°
2026-05-06 12:23 37.56372 104.68065 36271 ft 383 kts 239°
2026-05-06 12:23 37.53085 104.62778 36287 ft 383 kts 239°
2026-05-06 12:24 37.49821 104.57522 36268 ft 383 kts 238°
2026-05-06 12:24 37.46527 104.52243 36281 ft 383 kts 238°
2026-05-06 12:25 37.43241 104.46940 36297 ft 382 kts 239°
2026-05-06 12:25 37.40052 104.41640 36303 ft 382 kts 239°
2026-05-06 12:26 37.36843 104.36286 36313 ft 382 kts 239°
2026-05-06 12:26 37.33625 104.30955 36318 ft 382 kts 239°
2026-05-06 12:27 37.30412 104.25664 36284 ft 383 kts 238°
2026-05-06 12:27 37.27184 104.20353 36301 ft 383 kts 238°
2026-05-06 12:28 37.23951 104.15031 36313 ft 383 kts 238°
2026-05-06 12:28 37.20717 104.09719 36316 ft 382 kts 239°
2026-05-06 12:29 37.18338 104.03894 36341 ft 374 kts 251°
2026-05-06 12:29 37.16404 103.97833 36348 ft 374 kts 251°
2026-05-06 12:30 37.14445 103.91786 36370 ft 375 kts 251°
2026-05-06 12:30 37.12490 103.85776 36350 ft 375 kts 251°
2026-05-06 12:31 37.10520 103.79727 36350 ft 375 kts 251°
2026-05-06 12:31 37.08550 103.73674 36384 ft 376 kts 251°
2026-05-06 12:32 37.06577 103.67614 36385 ft 376 kts 251°
2026-05-06 12:32 37.04599 103.61559 36405 ft 376 kts 251°
2026-05-06 12:33 37.02614 103.55506 36408 ft 376 kts 251°
2026-05-06 12:33 37.00636 103.49459 36420 ft 376 kts 251°
2026-05-06 12:34 36.98646 103.43394 36424 ft 376 kts 251°
2026-05-06 12:34 36.96649 103.37344 36424 ft 376 kts 251°
2026-05-06 12:35 36.94667 103.31340 36388 ft 376 kts 250°
2026-05-06 12:35 36.92671 103.25278 36395 ft 377 kts 251°
2026-05-06 12:36 36.90716 103.19235 36406 ft 377 kts 251°
2026-05-06 12:36 36.89075 103.14141 36412 ft 377 kts 251°
2026-05-06 12:37 36.87128 103.08104 36417 ft 376 kts 250°
2026-05-06 12:37 36.85163 103.02055 36430 ft 376 kts 251°
2026-05-06 12:38 36.83187 102.96013 36426 ft 376 kts 250°
2026-05-06 12:38 36.81205 102.89958 36426 ft 376 kts 251°
2026-05-06 12:39 36.79260 102.83947 36437 ft 376 kts 251°
2026-05-06 12:39 36.77310 102.77894 36400 ft 376 kts 250°
2026-05-06 12:40 36.75350 102.71830 36410 ft 377 kts 250°
2026-05-06 12:40 36.73382 102.65766 36394 ft 377 kts 250°
2026-05-06 12:41 36.71406 102.59701 36385 ft 377 kts 251°
2026-05-06 12:41 36.69440 102.53687 36395 ft 378 kts 250°
2026-05-06 12:42 36.67457 102.47602 36403 ft 379 kts 250°
2026-05-06 12:42 36.65466 102.41515 36402 ft 379 kts 250°
2026-05-06 12:43 36.63472 102.35428 36403 ft 378 kts 250°
2026-05-06 12:43 36.61477 102.29359 36379 ft 378 kts 250°
2026-05-06 12:44 36.59480 102.23306 36348 ft 378 kts 250°
2026-05-06 12:44 36.57505 102.17291 36332 ft 378 kts 250°
2026-05-06 12:45 36.55500 102.11220 36345 ft 380 kts 250°
2026-05-06 12:46 36.52203 102.02263 36340 ft 383 kts 239°
2026-05-06 12:46 36.48858 101.97046 36341 ft 386 kts 236°
2026-05-06 12:47 36.45519 101.91885 36341 ft 385 kts 236°
2026-05-06 12:47 36.42173 101.86675 36329 ft 385 kts 236°
2026-05-06 12:48 36.38804 101.81467 36307 ft 385 kts 235°
2026-05-06 12:48 36.35458 101.76325 36312 ft 385 kts 235°
2026-05-06 12:49 36.32089 101.71148 36302 ft 385 kts 235°
2026-05-06 12:49 36.28716 101.65961 36311 ft 386 kts 236°
2026-05-06 12:50 36.25351 101.60789 36317 ft 385 kts 235°
2026-05-06 12:50 36.21979 101.55610 36303 ft 386 kts 235°
2026-05-06 12:51 36.18617 101.50490 36277 ft 385 kts 234°
2026-05-06 12:51 36.15230 101.45346 36260 ft 385 kts 234°
2026-05-06 12:52 36.11847 101.40188 36264 ft 387 kts 235°
2026-05-06 12:52 36.08458 101.35017 36252 ft 386 kts 235°
2026-05-06 12:53 36.05066 101.29856 36246 ft 388 kts 234°
2026-05-06 12:53 36.01651 101.24687 36231 ft 388 kts 234°
2026-05-06 12:54 35.98233 101.19505 36235 ft 389 kts 234°
2026-05-06 12:54 35.94829 101.14356 36236 ft 389 kts 234°
2026-05-06 12:55 35.91395 101.09174 36240 ft 390 kts 234°
2026-05-06 12:55 35.87958 101.03998 36243 ft 390 kts 234°
2026-05-06 12:56 35.84509 100.98801 36228 ft 391 kts 234°
2026-05-06 12:56 35.81084 100.93641 36231 ft 391 kts 234°
2026-05-06 12:57 35.77637 100.88458 36231 ft 391 kts 234°
2026-05-06 12:57 35.74185 100.83283 36214 ft 391 kts 234°
2026-05-06 12:58 35.70733 100.78114 36221 ft 390 kts 234°
2026-05-06 12:58 35.67302 100.72988 36231 ft 390 kts 234°
2026-05-06 12:59 35.63847 100.67827 36231 ft 390 kts 234°
2026-05-06 12:59 35.60386 100.62669 36230 ft 390 kts 234°
2026-05-06 13:00 35.56941 100.57556 36235 ft 390 kts 234°
2026-05-06 13:00 35.53479 100.52419 36195 ft 390 kts 233°
2026-05-06 13:01 35.50008 100.47273 36202 ft 391 kts 233°
2026-05-06 13:01 35.46531 100.42127 36198 ft 392 kts 233°
2026-05-06 13:02 35.43062 100.37008 36201 ft 393 kts 233°
2026-05-06 13:02 35.39547 100.31813 36204 ft 394 kts 233°
2026-05-06 13:03 35.36067 100.26670 36214 ft 394 kts 233°
2026-05-06 13:03 35.32568 100.21500 36214 ft 394 kts 233°
2026-05-06 13:04 35.29046 100.16335 36202 ft 395 kts 233°
2026-05-06 13:04 35.25527 100.11182 36210 ft 397 kts 232°
2026-05-06 13:05 35.21982 100.05979 36219 ft 398 kts 233°
2026-05-06 13:05 35.18421 100.00765 36222 ft 399 kts 233°
2026-05-06 13:06 35.14883 99.95585 36250 ft 399 kts 233°
2026-05-06 13:06 35.11314 99.90380 36257 ft 399 kts 232°
2026-05-06 13:07 35.07741 99.85177 36237 ft 400 kts 233°
2026-05-06 13:07 35.04154 99.79951 36257 ft 402 kts 232°
2026-05-06 13:08 35.00574 99.74752 36257 ft 402 kts 232°
2026-05-06 13:08 34.96963 99.69509 36260 ft 403 kts 232°
2026-05-06 13:09 34.93352 99.64281 36258 ft 402 kts 232°
2026-05-06 13:09 34.89743 99.59070 36275 ft 404 kts 232°
2026-05-06 13:10 34.86105 99.53824 36257 ft 405 kts 232°
2026-05-06 13:10 34.82485 99.48611 36259 ft 407 kts 231°
2026-05-06 13:11 34.78819 99.43334 36255 ft 407 kts 232°
2026-05-06 13:11 34.75154 99.38070 36235 ft 407 kts 232°
2026-05-06 13:12 34.71498 99.32809 36240 ft 408 kts 232°
2026-05-06 13:12 34.67847 99.27573 36235 ft 408 kts 232°
2026-05-06 13:13 34.64169 99.22317 36198 ft 408 kts 232°
2026-05-06 13:13 34.60490 99.17063 36206 ft 408 kts 232°
2026-05-06 13:14 34.56812 99.11815 36211 ft 408 kts 232°
2026-05-06 13:14 34.53128 99.06564 36198 ft 409 kts 232°
2026-05-06 13:15 34.49436 99.01316 36194 ft 409 kts 232°
2026-05-06 13:15 34.45758 98.96084 36197 ft 409 kts 232°
2026-05-06 13:16 34.42058 98.90834 36182 ft 409 kts 232°
2026-05-06 13:16 34.38345 98.85575 36177 ft 410 kts 232°
2026-05-06 13:17 34.34657 98.80368 36184 ft 410 kts 232°
2026-05-06 13:17 34.30938 98.75117 36191 ft 410 kts 232°
2026-05-06 13:18 34.27215 98.69879 36198 ft 411 kts 231°
2026-05-06 13:18 34.23491 98.64640 36195 ft 411 kts 231°
2026-05-06 13:19 34.19785 98.59419 36198 ft 412 kts 231°
2026-05-06 13:19 34.16048 98.54165 36179 ft 412 kts 231°
2026-05-06 13:20 34.12304 98.48921 36197 ft 413 kts 231°
2026-05-06 13:20 34.08546 98.43669 36201 ft 413 kts 231°
2026-05-06 13:21 34.04786 98.38419 36204 ft 414 kts 231°
2026-05-06 13:21 34.01028 98.33170 36221 ft 414 kts 231°
2026-05-06 13:22 33.97266 98.27925 36219 ft 414 kts 231°
2026-05-06 13:22 33.93495 98.22677 36202 ft 414 kts 231°
2026-05-06 13:23 33.89714 98.17436 36217 ft 415 kts 231°
2026-05-06 13:23 33.85945 98.12222 36220 ft 415 kts 231°
2026-05-06 13:24 33.82162 98.06972 36209 ft 415 kts 231°
2026-05-06 13:24 33.79010 98.02603 36218 ft 415 kts 231°
2026-05-06 13:25 33.74589 97.96494 36207 ft 415 kts 231°
2026-05-06 13:25 33.71406 97.92106 36204 ft 415 kts 231°
2026-05-06 13:26 33.67626 97.86907 36207 ft 416 kts 231°
2026-05-06 13:26 33.63816 97.81678 36190 ft 416 kts 231°
2026-05-06 13:27 33.60000 97.76444 36193 ft 416 kts 231°
2026-05-06 13:27 33.56195 97.71213 36199 ft 415 kts 231°
2026-05-06 13:28 33.52411 97.66030 36196 ft 416 kts 231°
2026-05-06 13:28 33.48593 97.60817 36195 ft 416 kts 231°
2026-05-06 13:29 33.44779 97.55601 36180 ft 416 kts 230°
2026-05-06 13:29 33.40957 97.50379 36180 ft 417 kts 230°
2026-05-06 13:30 33.37116 97.45153 36184 ft 418 kts 230°
2026-05-06 13:30 33.33293 97.39958 36179 ft 418 kts 230°
2026-05-06 13:31 33.29441 97.34748 36182 ft 418 kts 230°
2026-05-06 13:31 33.25589 97.29527 36171 ft 419 kts 230°
2026-05-06 13:32 33.21722 97.24279 36170 ft 419 kts 230°
2026-05-06 13:32 33.17879 97.19088 36160 ft 421 kts 230°
2026-05-06 13:33 33.13996 97.13854 36158 ft 421 kts 230°
2026-05-06 13:33 33.10109 97.08613 36159 ft 421 kts 230°
2026-05-06 13:34 33.06216 97.03379 36154 ft 422 kts 230°
2026-05-06 13:34 33.02321 96.98150 36165 ft 421 kts 230°
2026-05-06 13:35 32.98457 96.92960 36161 ft 421 kts 230°
2026-05-06 13:35 32.94565 96.87744 36147 ft 422 kts 230°
2026-05-06 13:36 32.90659 96.82524 36156 ft 422 kts 230°
2026-05-06 13:36 32.86749 96.77300 36148 ft 423 kts 230°
2026-05-06 13:37 32.82838 96.72081 36139 ft 423 kts 230°
2026-05-06 13:37 32.78918 96.66854 36139 ft 423 kts 230°
2026-05-06 13:38 32.75015 96.61648 36126 ft 423 kts 230°
2026-05-06 13:38 32.71084 96.56425 36120 ft 424 kts 230°
2026-05-06 13:39 32.67141 96.51195 36129 ft 424 kts 230°
2026-05-06 13:39 32.63205 96.45992 36132 ft 423 kts 230°
2026-05-06 13:40 32.59297 96.40828 36131 ft 423 kts 230°
2026-05-06 13:40 32.55366 96.35624 36136 ft 423 kts 230°
2026-05-06 13:41 32.51427 96.30436 36136 ft 423 kts 230°
2026-05-06 13:41 32.47489 96.25265 36135 ft 422 kts 230°
2026-05-06 13:42 32.43567 96.20102 36113 ft 422 kts 230°
2026-05-06 13:42 32.39630 96.14931 36117 ft 421 kts 230°
2026-05-06 13:43 32.35730 96.09813 36109 ft 420 kts 230°
2026-05-06 13:43 32.31811 96.04681 36114 ft 421 kts 230°
2026-05-06 13:44 32.27878 95.99549 36111 ft 421 kts 230°
2026-05-06 13:44 32.23956 95.94426 36103 ft 420 kts 230°
2026-05-06 13:45 32.20038 95.89303 36080 ft 419 kts 231°
2026-05-06 13:45 32.14174 95.81665 36082 ft 421 kts 230°
2026-05-06 13:46 32.10224 95.76541 36083 ft 421 kts 230°
2026-05-06 13:46 32.06285 95.71429 36087 ft 421 kts 230°
2026-05-06 13:47 32.02367 95.66339 36089 ft 421 kts 230°
2026-05-06 13:47 31.98418 95.61237 36074 ft 420 kts 230°
2026-05-06 13:48 31.94470 95.56134 36039 ft 422 kts 230°
2026-05-06 13:48 31.90505 95.51023 36045 ft 423 kts 230°
2026-05-06 13:49 31.86554 95.45927 36037 ft 423 kts 230°
2026-05-06 13:49 31.82575 95.40802 36014 ft 424 kts 230°
2026-05-06 13:50 31.78591 95.35683 36017 ft 425 kts 230°
2026-05-06 13:50 31.74614 95.30577 36010 ft 425 kts 230°
2026-05-06 13:51 31.70623 95.25459 35995 ft 424 kts 230°
2026-05-06 13:51 31.66632 95.20351 35984 ft 424 kts 230°
2026-05-06 13:52 31.62636 95.15245 35979 ft 424 kts 230°
2026-05-06 13:52 31.58645 95.10147 35979 ft 423 kts 230°
2026-05-06 13:53 31.54686 95.05099 35976 ft 422 kts 230°
2026-05-06 13:53 31.50698 95.00028 35968 ft 424 kts 230°
2026-05-06 13:54 31.46708 94.94949 35974 ft 422 kts 230°
2026-05-06 13:54 31.42723 94.89883 35968 ft 423 kts 230°
2026-05-06 13:55 31.38739 94.84837 35969 ft 421 kts 230°
2026-05-06 13:55 31.34761 94.79806 35963 ft 420 kts 230°
2026-05-06 13:56 31.30820 94.74814 35985 ft 420 kts 230°
2026-05-06 13:56 31.26854 94.69794 35987 ft 420 kts 230°
2026-05-06 13:57 31.22877 94.64781 35980 ft 420 kts 230°
2026-05-06 13:57 31.18901 94.59782 36010 ft 419 kts 229°
2026-05-06 13:58 31.14934 94.54799 36016 ft 419 kts 230°
2026-05-06 13:58 31.10952 94.49800 36056 ft 420 kts 229°
2026-05-06 13:59 31.06983 94.44821 36040 ft 418 kts 229°
2026-05-06 13:59 31.03030 94.39850 36039 ft 418 kts 230°
2026-05-06 14:00 30.99048 94.34875 36034 ft 420 kts 229°
2026-05-06 14:00 30.95063 94.29901 36036 ft 420 kts 229°
2026-05-06 14:01 30.91092 94.24954 36051 ft 420 kts 230°
2026-05-06 14:01 30.87098 94.19977 36058 ft 420 kts 229°
2026-05-06 14:02 30.83114 94.15010 36076 ft 419 kts 230°
2026-05-06 14:02 30.79128 94.10044 36081 ft 419 kts 230°
2026-05-06 14:03 30.75172 94.05130 36106 ft 419 kts 230°
2026-05-06 14:03 30.71169 94.00172 36108 ft 419 kts 230°
2026-05-06 14:04 30.67176 93.95241 36124 ft 419 kts 229°
2026-05-06 14:04 30.63190 93.90317 36124 ft 419 kts 230°
2026-05-06 14:05 30.59207 93.85376 36093 ft 418 kts 230°
2026-05-06 14:05 30.55222 93.80451 36107 ft 418 kts 230°
2026-05-06 14:06 30.51243 93.75561 36126 ft 420 kts 230°
2026-05-06 14:06 30.47230 93.70632 36135 ft 420 kts 230°
2026-05-06 14:07 30.43224 93.65717 36118 ft 418 kts 230°
2026-05-06 14:07 30.39253 93.60846 36118 ft 418 kts 230°
2026-05-06 14:08 30.35371 93.55814 36127 ft 418 kts 232°
2026-05-06 14:08 30.31683 93.50617 36123 ft 415 kts 233°
2026-05-06 14:09 30.28025 93.45447 36139 ft 414 kts 233°
2026-05-06 14:09 30.24340 93.40351 36141 ft 412 kts 232°
2026-05-06 14:10 30.20657 93.35314 36124 ft 412 kts 232°
2026-05-06 14:10 30.16940 93.30230 36116 ft 412 kts 232°
2026-05-06 14:11 30.13282 93.25209 36106 ft 410 kts 232°
2026-05-06 14:11 30.09606 93.20170 36080 ft 411 kts 232°
2026-05-06 14:12 30.05899 93.15105 36079 ft 412 kts 232°
2026-05-06 14:12 30.02206 93.10065 36103 ft 411 kts 233°
2026-05-06 14:13 29.98835 93.04835 36095 ft 406 kts 239°
2026-05-06 14:13 29.95766 92.99336 36090 ft 407 kts 240°
2026-05-06 14:14 29.93228 92.94808 36071 ft 402 kts 240°
2026-05-06 14:14 29.90182 92.89399 36064 ft 402 kts 239°
2026-05-06 14:15 29.87125 92.83970 36067 ft 404 kts 239°
2026-05-06 14:15 29.83570 92.77655 36070 ft 403 kts 238°
2026-05-06 14:16 29.81037 92.73162 36052 ft 402 kts 239°
2026-05-06 14:16 29.77997 92.67781 36055 ft 401 kts 239°
2026-05-06 14:17 29.74943 92.62374 36087 ft 403 kts 239°
2026-05-06 14:17 29.71889 92.56982 36040 ft 400 kts 239°
2026-05-06 14:18 29.68857 92.51640 36029 ft 399 kts 238°
2026-05-06 14:18 29.65814 92.46289 36037 ft 400 kts 238°
2026-05-06 14:19 29.62787 92.40960 36015 ft 401 kts 238°
2026-05-06 14:19 29.59739 92.35582 36018 ft 401 kts 238°
2026-05-06 14:20 29.56682 92.30222 36027 ft 401 kts 238°
2026-05-06 14:20 29.53616 92.24865 36003 ft 401 kts 238°
2026-05-06 14:21 29.50568 92.19530 35982 ft 402 kts 239°
2026-05-06 14:21 29.47505 92.14188 35973 ft 400 kts 238°
2026-05-06 14:22 29.44419 92.08850 35978 ft 402 kts 238°
2026-05-06 14:22 29.41338 92.03532 35994 ft 402 kts 238°
2026-05-06 14:23 29.38247 91.98199 35956 ft 400 kts 238°
2026-05-06 14:23 29.35165 91.92882 35964 ft 402 kts 238°
2026-05-06 14:24 29.32073 91.87540 35353 ft 403 kts 237°
2026-05-06 14:24 29.30514 91.84852 34603 ft 407 kts 238°
2026-05-06 14:24 29.28937 91.82138 33886 ft 410 kts 237°
2026-05-06 14:25 29.27433 91.79460 33693 ft 398 kts 242°
2026-05-06 14:25 29.26396 91.76571 33555 ft 386 kts 254°
2026-05-06 14:25 29.25968 91.73573 33330 ft 380 kts 265°
2026-05-06 14:25 29.26093 91.70561 32894 ft 379 kts 272°
2026-05-06 14:26 29.26357 91.67564 32376 ft 378 kts 272°
2026-05-06 14:26 29.26622 91.64577 31890 ft 376 kts 272°
2026-05-06 14:26 29.26882 91.61601 31387 ft 374 kts 272°
2026-05-06 14:26 29.27136 91.58645 30812 ft 372 kts 272°
2026-05-06 14:27 29.27385 91.55700 30236 ft 371 kts 272°
2026-05-06 14:27 29.27635 91.52763 29643 ft 370 kts 272°
2026-05-06 14:27 29.27881 91.49839 29006 ft 368 kts 272°
2026-05-06 14:27 29.28110 91.46931 28430 ft 365 kts 271°
2026-05-06 14:28 29.28323 91.44049 27892 ft 362 kts 271°
2026-05-06 14:28 29.28531 91.41181 27372 ft 360 kts 271°
2026-05-06 14:28 29.28736 91.38338 26865 ft 357 kts 272°
2026-05-06 14:28 29.28941 91.35515 26342 ft 354 kts 272°
2026-05-06 14:29 29.29145 91.32712 25828 ft 352 kts 272°
2026-05-06 14:29 29.29350 91.29934 25275 ft 349 kts 272°
2026-05-06 14:29 29.29556 91.27172 24730 ft 347 kts 272°
2026-05-06 14:29 29.29762 91.24434 24192 ft 344 kts 272°
2026-05-06 14:30 29.29965 91.21711 23647 ft 341 kts 272°
2026-05-06 14:30 29.30161 91.19013 23019 ft 339 kts 272°
2026-05-06 14:30 29.30356 91.16334 22330 ft 336 kts 272°
2026-05-06 14:30 29.30550 91.13673 21680 ft 334 kts 272°
2026-05-06 14:31 29.30740 91.11035 21079 ft 331 kts 272°
2026-05-06 14:31 29.30925 91.08418 20457 ft 329 kts 272°
2026-05-06 14:31 29.31110 91.05809 19844 ft 327 kts 272°
2026-05-06 14:31 29.31293 91.03244 19248 ft 326 kts 272°
2026-05-06 14:32 29.31555 91.00656 18561 ft 330 kts 277°
2026-05-06 14:32 29.32059 90.98073 17991 ft 331 kts 283°
2026-05-06 14:32 29.32757 90.95616 17781 ft 318 kts 287°
2026-05-06 14:32 29.33595 90.93357 17645 ft 298 kts 292°
2026-05-06 14:33 29.34537 90.91329 17517 ft 279 kts 297°
2026-05-06 14:33 29.35561 90.89481 17405 ft 272 kts 301°
2026-05-06 14:33 29.36672 90.87732 17279 ft 270 kts 300°
2026-05-06 14:33 29.37385 90.85782 16892 ft 261 kts 273°
2026-05-06 14:34 29.37366 90.83738 16508 ft 255 kts 262°
2026-05-06 14:34 29.37173 90.81726 16137 ft 252 kts 258°
2026-05-06 14:34 29.36873 90.79775 15777 ft 251 kts 255°
2026-05-06 14:34 29.36456 90.77894 15425 ft 236 kts 248°
2026-05-06 14:35 29.35614 90.76384 15337 ft 218 kts 222°
2026-05-06 14:35 29.34372 90.75472 14788 ft 211 kts 200°
2026-05-06 14:35 29.32963 90.75238 14439 ft 200 kts 179°
2026-05-06 14:35 29.31620 90.75628 14206 ft 200 kts 156°
2026-05-06 14:36 29.30524 90.76568 13944 ft 197 kts 133°
2026-05-06 14:36 29.29828 90.77908 13705 ft 197 kts 113°
2026-05-06 14:36 29.29627 90.79465 13452 ft 201 kts 92°
2026-05-06 14:36 29.29656 90.81062 13154 ft 199 kts 92°
2026-05-06 14:37 29.29681 90.82643 12761 ft 198 kts 94°
2026-05-06 14:37 29.29707 90.84195 12430 ft 190 kts 93°
2026-05-06 14:37 29.29731 90.85655 12146 ft 181 kts 92°
2026-05-06 14:37 29.29749 90.87081 11876 ft 178 kts 93°
2026-05-06 14:38 29.29769 90.88493 11668 ft 176 kts 93°
2026-05-06 14:38 29.29792 90.89875 11530 ft 166 kts 95°
2026-05-06 14:38 29.29805 90.91066 11518 ft 128 kts 88°
2026-05-06 14:38 29.29816 90.91890 11507 ft 78 kts 89°
2026-05-06 14:39 29.29825 90.92389 11507 ft 54 kts 89°
2026-05-06 14:39 29.29832 90.92764 11506 ft 32 kts 88°
2026-05-06 14:39 29.29742 90.92902 11506 ft 17 kts 149°
2026-05-06 14:39 29.29667 90.92917 11503 ft 10 kts 242°
2026-05-06 14:40 29.29667 90.92833 11506 ft 11 kts 271°
2026-05-06 14:40 29.29666 90.92720 11505 ft 18 kts 270°
2026-05-06 14:40 29.29663 90.92553 11506 ft 22 kts 269°
2026-05-06 14:40 29.29660 90.92376 11506 ft 22 kts 269°
2026-05-06 14:41 29.29658 90.92203 11509 ft 22 kts 269°
2026-05-06 14:41 29.29655 90.92010 11510 ft 27 kts 269°
2026-05-06 14:41 29.29651 90.91794 11511 ft 27 kts 269°
2026-05-06 14:41 29.29648 90.91584 11517 ft 26 kts 269°
2026-05-06 14:42 29.29645 90.91374 11514 ft 26 kts 269°
2026-05-06 14:42 29.29641 90.91165 11513 ft 26 kts 269°
2026-05-06 14:42 29.29638 90.90958 11513 ft 26 kts 269°
2026-05-06 14:42 29.29635 90.90754 11514 ft 25 kts 269°
2026-05-06 14:43 29.29632 90.90552 11520 ft 25 kts 269°
2026-05-06 14:43 29.29629 90.90355 11521 ft 24 kts 268°
2026-05-06 14:43 29.29626 90.90162 11521 ft 24 kts 269°
2026-05-06 14:43 29.29597 90.90012 11522 ft 13 kts 199°
2026-05-06 14:44 29.29511 90.89986 11508 ft 13 kts 198°
2026-05-06 14:44 29.29436 90.89984 11512 ft 5 kts 181°
2026-05-06 14:44 29.29425 90.89984 11512 ft 0 kts 180°